Location: McFarlands Corners
(41.4117°N, 81.3382°W)
Time: 00:40:33
(UTC+00:00)

Tiros 1 - Pass Details

Date: 17 February 2026
Orbit: 618 x 649 km, 48.4° (Epoch: 9 March)

Event Time Altitude Azimuth Distance (km) Brightness Sun altitude
Rises 21:19:18 0° 287° (WNW) 2,886 11.1 16.7°
Reaches altitude 10° 21:22:16 10° 268° (W) 1,977 10.9 16.2°
Maximum altitude 21:25:14 17° 227° (SW) 1,553 11.4 15.7°
Drops below altitude 10° 21:28:11 10° 186° (S) 1,973 10.3 15.2°
Sets 21:31:09 0° 166° (SSE) 2,878 10.7 14.8°
